| time (UTC) | temp C | wind direction | speed KPH | gust KPH | rain 1hr cm | rain 24hr cm | rain mn cm | humidity % | barometer mb |
| 20260904170019 | 35 | 239 | 0.0 | 4.8 | 0.00 | 0.00 | 0.00 | 20 | 1015.0 |
| 20260904164521 | 35 | 226 | 3.2 | 0.0 | 0.00 | 0.00 | 0.00 | 19 | 1015.0 |
| 20260904163018 | 36 | 231 | 0.0 | 11.3 | 0.00 | 0.00 | 0.00 | 19 | 1015.0 |
| 20260904161517 | 36 | 217 | 1.6 | 9.7 | 0.00 | 0.00 | 0.00 | 18 | 1015.0 |
| 20260904160020 | 37 | 212 | 4.8 | 9.7 | 0.00 | 0.00 | 0.00 | 17 | 1015.0 |
| 20260904154515 | 37 | 114 | 1.6 | 11.3 | 0.00 | 0.00 | 0.00 | 18 | 1015.1 |
| 20260904153014 | 36 | 134 | 1.6 | 11.3 | 0.00 | 0.00 | 0.00 | 19 | 1015.1 |
| 20260904151515 | 37 | 155 | 1.6 | 6.4 | 0.00 | 0.00 | 0.00 | 17 | 1015.2 |
| 20260904150029 | 37 | 270 | 3.2 | 16.1 | 0.00 | 0.00 | 0.00 | 17 | 1015.3 |
| 20260904144511 | 37 | 190 | 1.6 | 4.8 | 0.00 | 0.00 | 0.00 | 18 | 1015.5 |
| 20260904143009 | 37 | 84 | 0.0 | 6.4 | 0.00 | 0.00 | 0.00 | 18 | 1015.5 |
| 20260904141515 | 37 | 264 | 3.2 | 14.5 | 0.00 | 0.00 | 0.00 | 17 | 1015.6 |
| 20260904140007 | 37 | 169 | 1.6 | 4.8 | 0.00 | 0.00 | 0.00 | 18 | 1015.7 |
| 20260904134503 | 37 | 295 | 1.6 | 12.9 | 0.00 | 0.00 | 0.00 | 17 | 1016.0 |
| 20260904133006 | 37 | 260 | 1.6 | 12.9 | 0.00 | 0.00 | 0.00 | 17 | 1016.0 |
| 20260904131501 | 37 | 336 | 3.2 | 9.7 | 0.00 | 0.00 | 0.00 | 16 | 1016.2 |
| 20260904130059 | 36 | 277 | 3.2 | 14.5 | 0.00 | 0.00 | 0.00 | 16 | 1016.4 |
| 20260904124613 | 36 | 272 | 3.2 | 11.3 | 0.00 | 0.00 | 0.00 | 18 | 1016.4 |
| 20260904123055 | 36 | 243 | 3.2 | 11.3 | 0.00 | 0.00 | 0.00 | 19 | 1016.6 |
| 20260904121555 | 36 | 274 | 3.2 | 9.7 | 0.00 | 0.00 | 0.00 | 18 | 1016.7 |
| 20260904120055 | 36 | 242 | 4.8 | 11.3 | 0.00 | 0.00 | 0.00 | 18 | 1016.9 |
| 20260904114548 | 36 | 297 | 3.2 | 11.3 | 0.00 | 0.00 | 0.00 | 19 | 1017.1 |
| 20260904113050 | 35 | 293 | 0.0 | 8.0 | 0.00 | 0.00 | 0.00 | 20 | 1017.3 |
| 20260904111544 | 35 | 226 | 0.0 | 9.7 | 0.00 | 0.00 | 0.00 | 21 | 1017.5 |
| 20260904110041 | 34 | 165 | 1.6 | 9.7 | 0.00 | 0.00 | 0.00 | 21 | 1017.8 |
| 20260904104541 | 33 | 223 | 3.2 | 8.0 | 0.00 | 0.00 | 0.00 | 22 | 1017.9 |
| 20260904103044 | 32 | 156 | 0.0 | 6.4 | 0.00 | 0.00 | 0.00 | 24 | 1018.2 |
| 20260904101535 | 32 | 153 | 0.0 | 6.4 | 0.00 | 0.00 | 0.00 | 25 | 1018.3 |
| 20260904100032 | 32 | 258 | 0.0 | 3.2 | 0.00 | 0.00 | 0.00 | 25 | 1018.3 |
| 20260904094529 | 31 | 300 | 1.6 | 4.8 | 0.00 | 0.00 | 0.00 | 25 | 1018.3 |
| 20260904093027 | 30 | 129 | 0.0 | 3.2 | 0.00 | 0.00 | 0.00 | 27 | 1018.3 |
| 20260904091523 | 29 | 127 | 0.0 | 1.6 | 0.00 | 0.00 | 0.00 | 31 | 1018.2 |
| 20260904090017 | 27 | 101 | 0.0 | 4.8 | 0.00 | 0.00 | 0.00 | 34 | 1018.3 |
| 20260904084516 | 27 | 58 | 0.0 | 0.0 | 0.00 | 0.00 | 0.00 | 37 | 1018.2 |
| 20260904083013 | 26 | 103 | 0.0 | 1.6 | 0.00 | 0.00 | 0.00 | 37 | 1018.2 |
| 20260904081508 | 25 | 123 | 0.0 | 1.6 | 0.00 | 0.00 | 0.00 | 38 | 1017.9 |
| 20260904080006 | 24 | 214 | 0.0 | 1.6 | 0.00 | 0.00 | 0.00 | 43 | 1018.0 |
| 20260904074505 | 22 | 229 | 0.0 | 0.0 | 0.00 | 0.00 | 0.00 | 49 | 1018.1 |
| 20260904073005 | 21 | 229 | 0.0 | 0.0 | 0.00 | 0.00 | 0.00 | 50 | 1018.1 |
| 20260904071504 | 21 | 229 | 0.0 | 0.0 | 0.00 | 0.00 | 0.00 | 46 | 1018.1 |
| 20260904064500 | 19 | 229 | 0.0 | 0.0 | 0.00 | 0.00 | 0.00 | 50 | 1017.7 |
| 20260904063105 | -17 | 0.0 | 0.0 | 0.00 | 0.00 | 0.00 | 1017.7 | ||
| 20260904061553 | -17 | 0.0 | 0.0 | 0.00 | 0.00 | 0.00 | 1017.6 | ||
| 20260904060048 | -17 | 0.0 | 0.0 | 0.00 | 0.00 | 0.00 | 1017.2 | ||
| 20260904054545 | -17 | 0.0 | 0.0 | 0.00 | 0.00 | 0.00 | 1017.2 | ||
| 20260904053041 | -17 | 0.0 | 0.0 | 0.00 | 0.00 | 0.00 | 1017.2 | ||
| 20260904051555 | -17 | 0.0 | 0.0 | 0.00 | 0.00 | 0.00 | 1017.1 | ||
| 20260904050031 | -17 | 232 | 0.0 | 0.0 | 0.00 | 0.00 | 0.00 | 1017.2 | |
| 20260904044528 | 18 | 229 | 0.0 | 0.0 | 0.00 | 0.00 | 0.00 | 45 | 1017.2 |
| 20260904043027 | 18 | 229 | 0.0 | 0.0 | 0.00 | 0.00 | 0.00 | 46 | 1017.2 |
| 20260904041523 | 20 | 229 | 0.0 | 0.0 | 0.00 | 0.00 | 0.00 | 44 | 1017.2 |
| 20260904040028 | 20 | 229 | 0.0 | 4.8 | 0.00 | 0.00 | 0.00 | 42 | 1017.3 |
| 20260904034520 | 20 | 219 | 0.0 | 0.0 | 0.00 | 0.00 | 0.00 | 43 | 1017.2 |
| 20260904033018 | 20 | 219 | 0.0 | 1.6 | 0.00 | 0.00 | 0.00 | 41 | 1017.3 |
| 20260904031516 | 21 | 219 | 0.0 | 0.0 | 0.00 | 0.00 | 0.00 | 37 | 1017.5 |
| 20260904030016 | 20 | 232 | 1.6 | 1.6 | 0.00 | 0.00 | 0.00 | 39 | 1017.4 |
| 20260904024515 | 20 | 212 | 0.0 | 0.0 | 0.00 | 0.00 | 0.00 | 45 | 1017.4 |
| 20260904023011 | 21 | 213 | 0.0 | 0.0 | 0.00 | 0.00 | 0.00 | 41 | 1017.2 |
| 20260904021510 | 21 | 146 | 0.0 | 0.0 | 0.00 | 0.00 | 0.00 | 39 | 1017.3 |
| 20260904020006 | 21 | 146 | 0.0 | 0.0 | 0.00 | 0.00 | 0.00 | 42 | 1017.5 |
| 20260904014505 | 21 | 146 | 0.0 | 0.0 | 0.00 | 0.00 | 0.00 | 42 | 1017.6 |
| 20260904013006 | 21 | 146 | 0.0 | 0.0 | 0.00 | 0.00 | 0.00 | 42 | 1017.8 |
| 20260904011501 | 21 | 147 | 0.0 | 0.0 | 0.00 | 0.00 | 0.00 | 42 | 1017.8 |
| 20260904010115 | 21 | 147 | 0.0 | 0.0 | 0.00 | 0.00 | 0.00 | 39 | 1018.0 |
| 20260904004557 | 22 | 115 | 0.0 | 1.6 | 0.00 | 0.00 | 0.00 | 37 | 1018.1 |
| 20260904003054 | 22 | 114 | 0.0 | 0.0 | 0.00 | 0.00 | 0.00 | 40 | 1018.2 |
| 20260904001552 | 23 | 227 | 0.0 | 0.0 | 0.00 | 0.00 | 0.00 | 38 | 1018.0 |
| 20260904000055 | 23 | 227 | 0.0 | 1.6 | 0.00 | 0.00 | 0.00 | 39 | 1018.1 |
| 20260903234547 | 23 | 227 | 0.0 | 0.0 | 0.00 | 0.00 | 0.00 | 36 | 1018.1 |
| 20260903233046 | 23 | 217 | 0.0 | 0.0 | 0.00 | 0.00 | 0.00 | 35 | 1017.9 |
| 20260903231543 | 24 | 221 | 0.0 | 3.2 | 0.00 | 0.00 | 0.00 | 35 | 1017.9 |
| 20260903230041 | 23 | 219 | 0.0 | 0.0 | 0.00 | 0.00 | 0.00 | 39 | 1017.8 |
| 20260903224539 | 23 | 217 | 0.0 | 0.0 | 0.00 | 0.00 | 0.00 | 37 | 1017.7 |
| 20260903223039 | 24 | 217 | 0.0 | 1.6 | 0.00 | 0.00 | 0.00 | 37 | 1017.6 |
| 20260903221535 | 24 | 222 | 0.0 | 0.0 | 0.00 | 0.00 | 0.00 | 35 | 1017.6 |
| 20260903220031 | 25 | 223 | 0.0 | 1.6 | 0.00 | 0.00 | 0.00 | 32 | 1017.8 |
| 20260903214530 | 26 | 223 | 0.0 | 1.6 | 0.00 | 0.00 | 0.00 | 30 | 1017.6 |
| 20260903213029 | 26 | 231 | 0.0 | 1.6 | 0.00 | 0.00 | 0.00 | 31 | 1017.6 |
| 20260903211530 | 26 | 250 | 0.0 | 3.2 | 0.00 | 0.00 | 0.00 | 29 | 1017.6 |
| 20260903210029 | 27 | 172 | 0.0 | 0.0 | 0.00 | 0.00 | 0.00 | 28 | 1017.5 |
| 20260903204531 | 28 | 151 | 0.0 | 0.0 | 0.00 | 0.00 | 0.00 | 27 | 1017.4 |
| 20260903203127 | 28 | 152 | 0.0 | 0.0 | 0.00 | 0.00 | 0.00 | 27 | 1017.3 |
| 20260903201526 | 29 | 231 | 0.0 | 3.2 | 0.00 | 0.00 | 0.00 | 26 | 1017.1 |
| 20260903200026 | 30 | 98 | 0.0 | 1.6 | 0.00 | 0.00 | 0.00 | 24 | 1016.9 |
| 20260903194525 | 30 | 82 | 0.0 | 0.0 | 0.00 | 0.00 | 0.00 | 23 | 1016.8 |
| 20260903193024 | 31 | 73 | 0.0 | 1.6 | 0.00 | 0.00 | 0.00 | 23 | 1016.6 |
| 20260903191524 | 31 | 87 | 0.0 | 4.8 | 0.00 | 0.00 | 0.00 | 22 | 1016.5 |
| 20260903190023 | 32 | 89 | 1.6 | 3.2 | 0.00 | 0.00 | 0.00 | 20 | 1016.2 |
| 20260903184522 | 33 | 21 | 0.0 | 8.0 | 0.00 | 0.00 | 0.00 | 20 | 1016.1 |
| 20260903183022 | 34 | 321 | 3.2 | 9.7 | 0.00 | 0.00 | 0.00 | 19 | 1016.0 |
| 20260903181521 | 35 | 357 | 1.6 | 12.9 | 0.00 | 0.00 | 0.00 | 19 | 1015.9 |
| 20260903180030 | 36 | 331 | 3.2 | 17.7 | 0.00 | 0.00 | 0.00 | 18 | 1015.9 |
| 20260903174521 | 36 | 100 | 1.6 | 8.0 | 0.00 | 0.00 | 0.00 | 20 | 1015.5 |
| 20260903173018 | 36 | 153 | 1.6 | 9.7 | 0.00 | 0.00 | 0.00 | 20 | 1015.6 |
| 20260903171518 | 37 | 244 | 1.6 | 11.3 | 0.00 | 0.00 | 0.00 | 20 | 1015.7 |